World > North America > United States > Idaho

Stites, Idaho Regional Weather

Lat: 46.09N, Lon: 115.98W
Wx Zone: IDZ007Web Search
Stites Weather Warning NWS WEATHER ALERT FOR THE STITES, ID AREA - AIR STAGNATION ADVISORY Issued: 452 PM MST Fri Dec 4 2020 Stites Weather Warning  

Helpful Tip: Abbreviated, 7 Day, 14 Day Forecasts. There is a weather forecast for every taste.

Feedback
Stites Weather Map
UTC Time: 12/5/2020, 05:57
Your Time:

Stites, ID Regional Weather

Expires:202012050600;;857573
ASUS45 KBOI 050510
RWRID 

IDAHO REGIONAL WEATHER ROUNDUP
NATIONAL WEATHER SERVICE BOISE ID
1000 PM MST FRI DEC 04 2020

NOTE: "FAIR" INDICATES FEW OR NO CLOUDS BELOW 12000 FEET
WITH NO SIGNIFICANT WEATHER AND/OR OBSTRUCTIONS TO VISIBILITY


IDZ002-004-006-007-026-050600-
NORTHERN IDAHO

  
CITY           SKY/WX    TMP DP  RH WIND       PRES   REMARKS
LEWISTON       CLEAR     29  23  78 S3        30.48S                  
LOWELL           N/A     26  24  92 CALM      30.54F                  
COEUR D'ALENE  CLOUDY    29  28  96 N14       30.50S WCI  18          
MULLAN PASS    CLEAR     31  15  52 SE7       30.41S WCI  24          
$$
  

SKY/WX - Weather  TMP - Temperature  DP - Dew Point  RH - Relative Humidity
WIND - Wind Direction/Speed PRES - Barometric Pressure VSB - Visibility
WCI - Wind Chill Index E13G22 Wind - East Wind 13 mph/Gusts of 22 mph